Location: Hampton Plantation State Historic Site
(33.1998°N, 79.4353°W)
Time: 04:04:23
(UTC-05:00)

Envisat - Visible Passes

Search period start: 01 December 2020 00:00
Search period end: 11 December 2020 00:00
Orbit: 764 x 766 km, 98.1° (Epoch: 30 November)

Date Brightness Start Highest point End Pass type
(mag) Time Alt. Az. Time Alt. Az. Time Alt. Az.
01 Dec 5.0 05:25:11 10° NE 05:29:37 30° E 05:34:02 10° SSE visible
01 Dec 5.2 18:14:29 10° SSW 18:18:50 29° W 18:23:14 10° NW visible
02 Dec 6.2 04:50:37 10° ENE 04:52:32 12° E 04:54:28 10° ESE visible
02 Dec 3.0 06:26:53 10° N 06:31:53 60° WNW 06:36:51 10° SSW visible
02 Dec 3.4 17:36:54 10° S 17:41:57 72° WSW 17:47:01 10° NNW visible
03 Dec 3.7 05:50:07 10° NNE 05:55:07 56° E 06:00:05 10° S visible
03 Dec 6.0 18:41:27 10° SW 18:44:25 16° W 18:47:25 10° WNW visible
04 Dec 5.4 05:14:10 10° NE 05:18:10 23° E 05:22:08 10° SSE visible
04 Dec 4.7 18:02:43 10° SSW 18:07:24 38° W 18:12:07 10° NNW visible
05 Dec 2.9 06:15:26 10° N 06:20:31 78° WNW 06:25:35 10° SSW visible
06 Dec 4.3 05:38:53 10° NNE 05:43:42 43° E 05:48:29 10° S visible
06 Dec 5.7 18:29:14 10° SW 18:32:57 20° W 18:36:42 10° NW visible
07 Dec 5.8 05:03:19 10° NE 05:06:42 18° E 05:10:04 10° SE visible
07 Dec 3.4 06:41:05 10° N 06:45:50 42° WNW 06:50:35 10° SW visible
07 Dec 4.1 17:51:06 10° S 17:55:59 49° W 18:00:55 10° NNW visible
08 Dec 3.1 06:04:03 10° NNE 06:09:09 81° ESE 06:14:13 10° S visible
08 Dec 6.4 18:57:46 10° W 18:58:35 10° W 18:59:25 10° W visible
09 Dec 4.8 05:27:43 10° NNE 05:32:16 33° E 05:36:48 10° SSE visible
09 Dec 5.3 18:17:16 10° SSW 18:21:29 26° W 18:25:44 10° NW visible
10 Dec 6.1 04:52:48 10° ENE 04:55:13 13° E 04:57:38 10° ESE visible
10 Dec 3.1 06:29:32 10° N 06:34:30 55° WNW 06:39:26 10° SSW visible
10 Dec 3.5 17:39:33 10° S 17:44:34 65° WSW 17:49:38 10° NNW visible
